星链-32082 (STARLINK-32082)

导读 | 星芒AI

STARLINK-32082 是 SpaceX Starlink 卫星互联网项目中的一颗低轨道卫星,属于第三代星链卫星(v1.5)。该卫星于2023年发射,旨在为全球用户提供高速、低延迟的宽带互联网服务。它运行在约550公里高度的近地轨道,配备先进通信设备和激光链路,以增强网络连接稳定性。作为星链星座的一部分,STARLINK-32082 支持偏远地区互联网接入,推动全球数字包容性发展。

基本信息
目录编号:
60346
目录名称:
STARLINK-32082
国际标识:
2024-136T
轨道中心:
EARTH
卫星名称:
星链-32082 (STARLINK-32082)
卫星全名:
星链-32082 (STARLINK-32082)
卫星状态:
在轨 (已飞行458 天)
发射日期:
2024-08-02 UTC
国别 :
美国 (US)
星等 :
--
轨道信息
数据来源 国际轨道数据
星历时间: 2025-11-02T15:20:23+0800
1天前
查看轨道信息
半长轴: 6853.37km
偏心率: 0.0001264
轨道倾角: 53.161°
近地点辐角 85.795°
升交点赤经 307.200°
平近点角 274.320°
近地点: 474.368km
远地点: 476.102km
周期: 94.106分钟
每日圈数: 15.301942
详细信息
卫星平台:
Starlink v2.0 mini
运营商:
太空探索技术公司
运营商所在国:
美国
制造商(研发单位):
太空探索技术公司
制造商所在国:
美国
使用方式:
暂无
卫星简介
星链(Starlink)计划是由太空探索技术公司(SpaceX)提出的一个巨型低轨卫星互联网星座项目,计划在2019年至2024年间在太空搭建由约1.2万颗卫星组成的“星链”网络,其中1584颗将部署在地球上空550千米处的近地轨道,并从2020年开始工作。该卫星仍在工作。
2D轨道图
3D轨道图
轨道高度分析图
轨道倾角分析图
轨道综合分析图
查看轨道综合分析图